Powrót do katalogu

DELTA 1 DEB

LostUNKNOWN
NORAD 28667·DEBRIS·🇺🇸 United States

Wystrzelony Jul 4, 1968 z Vandenberg Space Force Base

Loading…

Następne Przeloty (najbliższe 24 godziny)

TLE

NieaktualneSource: Space-Track

Epoka: Mar 22, 2022, 01:42 UTC

1 28667U 68055Q   22081.07123979  .00015879  00000-0  15178-1 0  9997
2 28667 120.5229 213.3137 1741668 211.8085 136.4934 11.14286960 30966

Śledź DELTA 1 DEB w czasie rzeczywistym z AllMySat

Download on the App Store